Time[GMT],current_u[cm/s](10m),current_v[cm/s](10m),current_u[cm/s](14m),current_v[cm/s](14m),current_u[cm/s](18m),current_v[cm/s](18m),current_u[cm/s](22m),current_v[cm/s](22m),current_u[cm/s](26m),current_v[cm/s](26m),current_u[cm/s](30m),current_v[cm/s](30m),current_u[cm/s](34m),current_v[cm/s](34m),current_u[cm/s](38m),current_v[cm/s](38m),current_u[cm/s](42m),current_v[cm/s](42m),current_u[cm/s](46m),current_v[cm/s](46m),current_u[cm/s](50m),current_v[cm/s](50m),current_u[cm/s](54m),current_v[cm/s](54m),current_u[cm/s](58m),current_v[cm/s](58m),current_u[cm/s](62m),current_v[cm/s](62m),current_u[cm/s](66m),current_v[cm/s](66m),current_u[cm/s](70m),current_v[cm/s](70m),current_u[cm/s](74m),current_v[cm/s](74m),current_u[cm/s](78m),current_v[cm/s](78m),current_u[cm/s](82m),current_v[cm/s](82m),current_u[cm/s](86m),current_v[cm/s](86m),current_u[cm/s](90m),current_v[cm/s](90m),current_u[cm/s](94m),current_v[cm/s](94m),current_u[cm/s](98m),current_v[cm/s](98m)
2009-05-27 17:00,-9.83,17.78,-10.79,15.49,-10.10,13.93,-3.91,16.59,-0.18,19.74,-1.00,18.02,-3.57,17.85,-8.73,19.28,-9.10,19.47,-6.47,20.09,-4.81,18.82,-3.03,17.80,-3.07,17.58,-2.70,18.75,-1.47,19.86,-1.84,19.01,-1.85,16.71,-2.49,13.05,-3.87,10.74,-4.10,8.46,-4.50,7.71,-3.87,7.38,-3.91,7.16
2009-05-27 18:00,-4.44,7.20,-9.96,4.75,-8.47,5.32,-7.48,5.53,-7.02,4.73,-5.57,4.44,-5.41,4.91,-6.08,6.07,-8.35,11.01,-9.54,11.80,-9.27,10.94,-9.79,10.25,-10.14,10.35,-9.77,9.84,-9.49,7.94,-8.52,5.83,-7.66,4.42,-6.01,3.16,-3.22,3.61,-1.45,4.99,0.92,3.43,1.38,2.63,2.08,1.38
2009-05-27 19:00,-4.48,3.63,-4.90,1.62,-1.11,-1.81,2.65,-2.11,1.77,-1.65,0.44,-1.75,-1.35,-1.05,-0.85,-1.31,0.33,-2.73,-0.23,-4.99,0.37,-6.90,0.84,-8.75,1.32,-9.96,4.76,-10.25,7.16,-10.55,7.28,-13.97,7.49,-17.67,7.74,-19.48,6.40,-20.21,6.03,-21.37,6.12,-21.66,5.73,-22.10,5.14,-22.91
2009-05-27 20:00,1.15,-15.14,2.59,-17.73,3.72,-20.00,2.78,-21.03,3.28,-22.96,3.01,-26.82,2.85,-30.33,0.78,-30.76,-0.31,-31.62,0.69,-30.79,2.77,-32.76,5.63,-36.58,5.98,-39.72,5.20,-40.90,5.93,-40.57,4.86,-40.49,4.24,-41.20,3.43,-42.29,2.18,-44.67,1.77,-46.37,1.63,-46.94,1.02,-45.98,0.74,-44.07
2009-05-27 21:00,9.23,-16.50,4.68,-17.39,2.41,-23.86,3.70,-31.73,3.04,-36.65,1.90,-38.06,1.13,-38.93,2.28,-39.61,6.06,-40.32,9.50,-42.60,10.93,-43.83,11.70,-44.96,10.74,-45.57,8.67,-46.00,5.59,-46.54,3.81,-47.20,2.42,-47.11,1.75,-45.64,2.31,-44.74,3.47,-43.43,4.09,-42.72,4.87,-41.53,5.57,-38.38
2009-05-27 22:00,11.53,-8.77,4.61,-10.09,0.87,-16.59,-4.14,-22.34,-4.80,-26.95,-2.54,-27.81,0.53,-27.59,4.65,-30.08,8.12,-34.13,8.16,-35.27,7.02,-34.99,6.65,-34.80,5.18,-33.79,2.88,-33.46,1.44,-32.86,0.91,-32.50,1.55,-31.88,2.48,-29.81,2.54,-30.00,3.32,-30.18,3.54,-28.85,4.35,-28.08,6.12,-28.05
2009-05-27 23:00,12.03,-5.99,11.74,-1.37,5.05,-2.09,-0.91,-9.19,-3.48,-17.74,-3.63,-20.61,-2.78,-20.35,-1.04,-23.57,1.69,-26.29,4.52,-28.65,6.07,-30.26,5.87,-29.28,5.03,-27.24,4.57,-26.12,3.94,-24.43,3.87,-23.20,3.42,-22.08,3.86,-22.47,4.57,-21.41,6.14,-20.71,5.93,-19.73,6.39,-19.17,7.33,-17.83
2009-05-28 00:00,11.54,1.61,15.38,5.42,13.95,8.01,8.43,3.88,1.90,-3.07,0.54,-4.76,-0.52,-5.40,-0.72,-7.77,-0.13,-8.00,0.89,-9.57,4.18,-12.73,5.05,-13.19,3.11,-12.33,1.88,-10.41,0.50,-9.69,0.41,-8.04,-0.11,-5.69,1.00,-3.88,1.83,-3.52,2.42,-2.39,3.74,-2.60,4.01,-3.46,4.92,-4.02
2009-05-28 01:00,0.94,12.13,6.09,13.73,6.38,14.14,4.63,12.02,2.52,10.42,-0.32,9.43,-0.30,9.02,0.52,8.43,0.29,6.79,-0.49,4.25,-0.16,4.87,1.16,7.69,0.93,8.77,0.31,11.10,0.54,13.05,-0.08,13.38,-1.94,13.64,-2.03,13.93,-2.51,13.78,-1.85,13.35,-1.96,13.01,-1.53,11.99,-0.95,9.44
2009-05-28 02:00,2.03,30.80,5.97,31.61,6.88,32.73,5.15,31.56,0.85,28.54,-2.89,26.75,-3.50,26.04,-5.08,24.71,-5.90,23.30,-5.76,23.55,-5.84,22.79,-4.70,21.47,-5.33,20.13,-3.83,20.70,-2.07,23.13,0.40,26.62,1.20,28.44,0.29,29.00,-0.29,28.50,-1.37,28.27,-2.38,28.48,-3.68,27.97,-3.48,28.66
2009-05-28 03:00,-14.88,39.36,-12.78,41.37,-15.35,42.56,-15.89,42.29,-15.29,41.01,-15.21,38.73,-15.21,36.74,-15.85,36.75,-13.74,37.72,-11.13,37.07,-9.95,35.97,-10.37,35.31,-10.42,35.82,-10.12,38.53,-10.11,42.20,-8.38,44.73,-7.64,45.38,-7.84,45.01,-7.90,45.20,-8.19,44.79,-8.92,43.10,-9.08,41.58,-8.27,39.32
2009-05-28 04:00,-26.97,48.58,-18.98,49.50,-12.44,49.02,-9.92,50.01,-3.68,50.49,4.25,48.56,7.54,47.07,3.66,41.05,-1.21,39.53,-4.81,37.99,-7.32,36.27,-9.39,35.20,-10.95,34.82,-12.08,35.09,-12.54,34.22,-12.29,34.09,-12.75,33.53,-12.33,33.55,-12.66,31.56,-11.67,30.41,-11.83,28.89,-11.17,26.79,-11.37,24.74
2009-05-28 05:00,-16.90,42.81,-13.90,40.92,-9.34,39.40,-5.51,37.87,-1.39,36.75,1.66,36.02,4.17,34.71,2.21,36.61,-0.89,37.85,-1.65,36.56,-1.04,35.29,-0.10,34.95,3.00,35.08,5.08,34.47,3.95,30.03,2.11,26.84,1.45,23.91,1.44,21.61,1.50,20.05,2.44,18.04,1.28,16.74,1.59,16.42,0.19,15.87
2009-05-28 06:00,-6.69,30.91,-6.37,29.86,-7.55,27.60,-7.08,25.76,-5.47,23.96,-6.34,23.37,-6.00,22.95,-4.06,20.42,-1.86,17.75,-0.08,18.41,1.24,19.24,0.76,19.09,-2.07,17.06,-4.37,15.71,-6.85,15.25,-8.49,15.16,-9.05,15.61,-9.98,16.58,-10.43,17.70,-10.63,17.64,-9.50,17.05,-8.28,16.48,-7.19,15.36
2009-05-28 07:00,-2.49,8.65,-3.82,9.91,-5.37,8.49,-3.67,6.08,2.15,4.54,5.52,2.45,5.69,-0.11,6.01,-1.80,5.77,-1.03,1.16,-0.69,-0.92,-0.08,-0.87,-0.58,-0.25,-3.22,-0.74,-7.04,-1.71,-7.97,-1.58,-8.03,-0.95,-8.05,0.29,-7.66,2.05,-8.26,2.37,-7.95,2.70,-7.33,3.79,-8.14,4.29,-8.72
2009-05-28 08:00,2.67,-7.55,1.02,-9.32,0.83,-15.45,-0.87,-21.43,-2.24,-25.10,-2.52,-26.87,-0.27,-26.37,1.94,-25.06,3.06,-25.96,4.78,-27.11,6.67,-29.14,7.43,-31.93,8.51,-35.06,7.99,-37.10,6.98,-38.88,6.50,-39.35,5.31,-39.93,5.22,-41.32,5.25,-41.73,4.96,-43.18,4.77,-43.55,4.24,-42.88,4.15,-37.88
2009-05-28 09:00,7.60,-26.43,6.63,-24.33,3.72,-26.07,-0.65,-29.53,-1.97,-35.70,-2.19,-40.38,-0.23,-43.33,1.89,-43.40,1.80,-43.11,2.19,-44.36,2.94,-43.39,4.79,-42.60,6.86,-43.21,8.35,-44.64,8.38,-44.73,8.48,-44.39,7.13,-45.43,4.97,-46.21,2.89,-47.28,1.60,-46.84,1.28,-45.79,1.39,-44.81,-0.19,-39.75
2009-05-28 10:00,12.96,-26.13,15.13,-22.00,9.52,-23.85,0.71,-29.52,-5.11,-34.37,-5.13,-38.68,-2.95,-40.30,0.28,-39.92,4.26,-40.57,7.98,-42.76,10.37,-46.42,11.30,-47.38,10.08,-48.18,7.98,-47.48,7.28,-47.59,5.98,-46.42,5.30,-45.59,4.57,-43.93,4.06,-42.62,3.85,-41.95,4.62,-41.40,5.44,-39.68,6.77,-34.86
2009-05-28 11:00,14.99,-28.64,15.52,-24.28,16.26,-17.24,15.33,-9.89,9.10,-6.70,0.54,-11.14,-4.47,-18.26,-5.82,-20.66,-6.69,-21.56,-5.43,-23.58,-3.35,-25.24,0.92,-27.16,3.85,-27.50,6.54,-27.39,8.00,-28.72,8.65,-29.46,9.26,-29.06,8.89,-28.55,8.32,-28.73,8.52,-28.03,8.01,-26.73,7.44,-25.23,9.01,-19.19
2009-05-28 12:00,4.04,-11.62,10.66,-3.28,17.44,5.54,21.78,10.45,23.44,9.82,20.50,1.78,15.28,-6.03,7.61,-10.30,5.36,-11.84,4.99,-11.33,4.77,-11.29,4.80,-11.39,4.77,-12.97,6.60,-13.45,7.82,-14.01,7.69,-13.94,8.61,-13.87,10.12,-12.66,11.34,-11.86,12.52,-11.29,13.06,-11.33,14.73,-10.29,10.27,-6.75
2009-05-28 13:00,2.41,-9.09,12.03,2.39,16.50,7.55,14.47,5.34,9.86,1.29,7.71,-0.22,6.72,-0.73,5.94,-0.56,6.84,0.56,6.30,0.29,5.32,0.08,3.35,-0.00,2.25,0.18,1.26,-0.34,0.73,0.02,-0.09,0.29,0.21,-0.35,1.14,0.04,1.74,-0.19,2.35,0.52,2.94,-0.03,2.48,2.13,-0.72,3.34
2009-05-28 14:00,-0.14,18.60,4.82,26.22,7.48,29.46,4.53,27.49,-0.77,21.97,-4.33,17.61,-7.04,15.19,-8.20,13.89,-7.54,13.78,-5.92,14.29,-4.97,15.63,-2.82,15.78,-2.85,17.55,-4.16,19.76,-4.49,20.81,-5.44,22.50,-6.52,23.63,-7.28,25.07,-8.29,26.95,-9.36,29.03,-9.17,30.45,-8.73,30.06,-8.16,27.20
2009-05-28 15:00,-12.54,27.83,-6.34,34.47,-1.43,33.18,3.42,30.39,2.43,31.55,-4.46,33.49,-10.28,33.67,-11.17,33.49,-10.24,35.56,-9.11,36.65,-9.06,37.82,-9.56,39.44,-10.09,40.12,-10.48,42.72,-9.41,45.67,-8.68,45.37,-9.55,44.79,-9.61,43.30,-10.07,42.74,-9.79,40.52,-10.18,38.73,-9.56,36.09,-7.33,33.96
2009-05-28 16:00,-12.94,28.75,-8.49,31.29,-3.23,33.24,0.40,34.37,5.33,37.37,6.57,44.47,3.80,48.00,-1.58,47.79,-5.53,48.03,-6.45,47.95,-6.53,48.55,-6.57,46.66,-7.56,44.78,-8.84,43.85,-8.77,44.30,-8.44,44.92,-7.67,45.48,-6.83,44.80,-5.94,43.61,-5.44,41.35,-6.17,39.66,-5.98,38.36,-4.61,37.00
2009-05-28 17:00,-20.44,36.37,-17.62,35.05,-15.44,33.11,-13.11,32.68,-11.32,31.98,-9.87,33.37,-7.23,33.99,-5.65,32.28,-5.29,29.77,-6.72,27.97,-9.09,27.86,-8.29,28.63,-6.52,28.34,-4.12,28.36,-3.50,29.07,-2.47,28.45,-1.20,29.06,-1.56,28.21,-1.87,27.17,-2.30,26.20,-1.92,24.33,-1.98,22.84,-1.83,19.33
2009-05-28 18:00,-2.75,22.29,-2.16,20.06,-2.29,18.45,-2.26,17.00,-4.50,17.14,-6.58,17.75,-6.68,17.09,-4.61,17.84,-2.95,17.20,-0.26,16.99,-1.29,19.29,-3.97,21.49,-8.49,21.55,-11.17,20.40,-11.28,18.38,-10.13,17.06,-8.04,15.72,-5.67,15.52,-2.00,15.82,-0.61,15.73,1.28,13.70,3.07,12.69,3.67,11.09
2009-05-28 19:00,-4.03,16.65,-4.59,18.78,-7.74,19.79,-9.96,19.21,-12.13,18.43,-12.09,16.97,-12.66,15.75,-13.05,15.00,-13.78,16.66,-15.61,16.50,-15.29,13.78,-12.25,10.74,-10.78,10.05,-11.70,9.66,-12.84,9.62,-13.25,9.59,-12.74,8.29,-9.92,8.33,-7.84,8.35,-5.47,8.14,-1.31,7.55,1.03,5.77,1.91,3.63
2009-05-28 20:00,-14.00,13.34,-12.71,12.90,-10.23,10.64,-10.15,8.36,-8.35,7.98,-6.89,5.29,-7.25,1.41,-8.64,-1.85,-10.97,-4.46,-7.51,-5.48,-4.42,-7.66,-1.09,-8.61,-0.01,-8.38,1.00,-7.23,3.44,-6.99,3.99,-7.76,4.69,-9.33,4.01,-10.17,3.26,-10.82,2.15,-12.63,1.33,-14.35,0.26,-15.63,-0.40,-17.20
2009-05-28 21:00,-2.38,-3.46,2.01,-7.12,3.61,-10.92,5.18,-13.26,2.74,-15.17,0.50,-16.08,-0.48,-17.64,0.83,-20.48,1.77,-24.17,1.69,-26.60,3.46,-27.93,3.87,-29.90,3.60,-32.08,3.84,-32.84,4.34,-33.11,4.75,-34.76,4.00,-36.04,3.71,-36.13,3.94,-35.85,3.88,-35.66,3.40,-35.81,3.29,-35.11,3.43,-34.23
2009-05-28 22:00,-4.44,-37.52,-5.48,-32.18,-6.03,-28.06,-4.61,-25.21,-3.86,-20.89,-3.73,-17.61,-5.49,-25.07,-5.87,-32.62,-1.94,-34.12,0.61,-34.58,0.70,-34.87,1.24,-34.91,3.03,-35.61,4.05,-34.87,4.80,-35.58,5.34,-35.31,4.74,-36.75,2.58,-39.21,1.32,-38.55,0.28,-37.20,-0.16,-35.45,0.21,-34.29,0.59,-32.49
2009-05-28 23:00,-2.37,-34.78,-0.28,-25.33,5.07,-20.31,5.41,-19.05,-1.69,-19.80,-5.03,-17.80,-6.67,-18.94,-6.54,-25.08,-5.04,-29.54,-2.78,-30.09,-0.92,-30.66,2.04,-31.10,4.38,-32.89,5.20,-34.52,4.81,-33.59,3.73,-31.83,2.77,-29.41,2.52,-29.28,2.49,-29.18,2.03,-30.06,1.33,-30.17,1.02,-29.85,-0.29,-27.64
2009-05-29 00:00,-1.71,-27.45,-1.35,-26.60,-2.80,-15.22,-1.80,-1.29,5.09,4.83,3.67,5.02,-0.40,-1.07,-4.65,-6.58,-8.13,-12.90,-8.71,-14.76,-6.58,-14.20,-3.46,-16.79,-1.96,-17.58,-1.78,-17.84,-1.22,-18.29,-1.87,-17.55,-2.70,-16.55,-2.10,-16.78,-1.48,-15.75,-0.60,-14.54,-0.23,-13.37,1.55,-11.35,-0.59,-8.88
2009-05-29 01:00,-17.65,-11.26,-10.61,2.46,-5.32,11.02,3.88,14.09,7.23,18.49,3.95,17.25,-2.47,12.64,-6.54,8.23,-7.84,6.67,-7.02,6.72,-5.19,6.24,-5.73,4.60,-6.50,4.05,-7.40,4.61,-8.60,4.76,-8.56,5.29,-7.15,4.47,-6.67,3.58,-5.80,4.16,-4.65,4.52,-3.59,5.80,-2.65,6.82,-2.13,5.83
2009-05-29 02:00,-19.49,10.79,-15.30,22.57,-7.54,26.56,1.40,29.13,8.15,31.66,9.23,31.57,5.51,27.69,1.28,21.45,-0.96,17.19,-1.24,15.74,-1.81,14.21,-2.80,13.69,-3.66,13.42,-5.31,13.01,-6.76,14.65,-7.34,15.83,-7.32,15.42,-6.88,15.35,-7.14,16.21,-6.86,15.98,-6.44,16.64,-5.64,15.42,-4.60,13.75
2009-05-29 03:00,-24.19,6.71,-20.88,18.95,-15.60,26.88,-8.44,30.47,-3.32,30.18,0.79,30.10,2.09,31.97,0.97,32.87,-1.12,31.49,-2.31,28.92,-2.75,27.00,-3.86,26.87,-4.20,27.28,-4.67,27.77,-5.89,28.33,-6.47,29.20,-6.37,28.18,-6.24,28.12,-4.83,28.97,-3.56,29.26,-1.37,29.95,-0.12,29.29,0.02,26.50
2009-05-29 04:00,-22.45,11.55,-19.72,11.87,-17.84,12.88,-15.92,16.83,-15.24,22.38,-13.15,25.75,-9.03,31.02,-4.73,36.02,-2.27,38.57,-0.22,41.72,-1.17,43.10,-2.35,45.88,-4.41,47.12,-7.39,48.29,-10.67,50.41,-10.42,50.59,-10.73,49.24,-10.62,48.22,-9.35,47.15,-9.83,46.69,-10.33,45.28,-10.15,44.70,-10.17,43.75
2009-05-29 05:00,-29.65,45.75,-29.57,43.47,-28.66,41.24,-26.32,39.77,-23.21,38.54,-20.71,38.59,-15.05,40.25,-10.03,42.96,-8.84,42.18,-9.70,40.23,-10.18,37.05,-8.85,33.80,-8.46,31.20,-9.38,29.44,-9.51,27.83,-9.66,26.32,-8.72,24.62,-9.31,23.49,-9.85,21.54,-9.39,20.74,-9.16,18.30,-8.95,15.96,-8.36,13.73
2009-05-29 06:00,-13.00,43.08,-9.14,38.42,-6.69,32.58,-4.82,28.25,-3.21,26.44,-4.46,23.75,-7.20,21.43,-8.27,20.15,-8.79,19.47,-8.45,20.41,-8.15,21.13,-7.63,20.46,-7.01,19.81,-5.85,17.45,-4.35,15.30,-3.29,12.59,-2.85,9.48,-1.37,5.75,0.16,3.51,0.09,1.39,-1.16,0.37,-1.06,-2.32,0.85,-4.76
2009-05-29 07:00,-14.85,26.17,-13.74,24.94,-12.52,22.70,-11.18,21.44,-10.96,18.37,-12.08,14.25,-13.36,12.28,-16.18,10.25,-17.38,5.69,-17.58,5.00,-15.92,4.36,-15.39,4.01,-14.12,3.98,-13.57,3.21,-12.83,3.54,-10.14,3.96,-7.63,2.65,-6.39,1.68,-5.85,0.27,-5.37,0.11,-4.96,0.45,-3.27,0.76,-0.17,-0.79
2009-05-29 08:00,-10.83,12.23,-9.38,11.64,-11.08,9.33,-11.75,7.13,-9.74,6.71,-7.73,5.66,-7.54,4.36,-7.57,2.78,-6.16,1.96,-6.50,0.70,-6.49,-2.02,-5.93,-5.51,-4.98,-8.88,-5.50,-12.61,-4.25,-13.26,-3.70,-12.67,-2.69,-12.88,-2.38,-13.21,-1.54,-13.89,-1.14,-14.50,-0.45,-16.37,0.88,-17.63,2.22,-20.25
2009-05-29 09:00,-5.61,-5.52,-9.72,-6.80,-7.98,-8.35,-2.80,-12.18,-2.16,-13.24,-0.54,-12.74,0.30,-13.73,0.93,-15.42,0.92,-19.09,2.08,-21.14,5.14,-22.91,6.52,-23.95,5.07,-26.70,3.99,-29.97,4.09,-32.98,5.07,-34.77,6.27,-34.92,7.24,-35.03,6.60,-37.01,5.61,-39.20,4.80,-40.30,4.52,-41.43,4.19,-40.69
2009-05-29 10:00,-0.73,-22.54,0.77,-21.97,2.36,-21.36,2.69,-23.78,2.95,-29.98,2.10,-36.32,0.64,-39.39,-0.45,-41.93,-0.29,-46.49,1.81,-46.15,3.80,-43.12,6.40,-42.41,10.33,-43.92,11.69,-45.59,10.94,-46.24,9.23,-46.77,8.38,-47.77,5.95,-47.69,5.04,-47.13,3.90,-45.81,3.90,-44.45,4.05,-42.94,5.13,-41.03
2009-05-29 11:00,-1.87,-23.94,-0.13,-21.09,-0.07,-19.61,-0.57,-17.35,-4.42,-20.44,-7.03,-26.18,-5.04,-30.90,-3.10,-33.43,-1.10,-34.80,1.37,-36.02,5.01,-39.29,8.39,-44.10,8.83,-44.49,8.13,-43.24,6.71,-42.74,5.25,-41.73,3.65,-42.33,2.26,-42.55,1.19,-42.15,0.62,-42.33,1.18,-42.47,1.84,-39.54,2.10,-32.65
2009-05-29 12:00,-6.51,-28.21,-5.42,-16.56,-1.06,-9.02,2.06,-4.60,2.00,-5.76,0.43,-10.45,-3.32,-14.23,-7.20,-19.94,-5.02,-23.56,-3.14,-24.23,-3.71,-25.77,-2.31,-30.57,-1.10,-33.13,-1.40,-34.16,-1.27,-33.60,-1.34,-32.68,-0.48,-32.09,0.47,-30.44,1.64,-29.13,2.44,-28.36,3.73,-27.43,4.40,-23.87,2.40,-19.15
2009-05-29 13:00,-13.87,-15.32,-13.62,-4.03,-5.88,4.77,0.07,9.87,2.31,12.76,3.88,10.42,0.40,1.07,-3.63,-7.52,-2.06,-11.22,-0.02,-12.05,-2.54,-13.04,-5.12,-17.52,-5.91,-20.69,-2.66,-22.72,-1.19,-23.41,-0.06,-22.33,0.24,-21.61,-0.87,-21.43,-1.37,-21.48,-0.46,-21.40,-0.29,-20.93,0.27,-19.71,-0.06,-15.62
2009-05-29 14:00,-20.30,9.70,-9.52,9.71,0.06,11.23,2.94,12.75,3.99,13.08,4.00,11.72,5.16,11.35,6.90,9.79,6.46,8.51,4.72,8.38,3.03,7.75,-0.89,4.54,-2.80,2.27,-2.23,0.77,-2.86,0.78,-3.79,1.75,-4.66,2.84,-5.47,3.11,-6.93,3.08,-7.45,2.39,-7.95,2.66,-6.56,0.89,-2.83,4.04
2009-05-29 15:00,-3.51,27.40,2.63,33.60,3.39,35.20,2.98,33.82,3.56,32.63,5.15,31.56,6.56,29.38,7.71,25.34,5.64,22.91,0.46,18.37,-3.46,15.47,-4.53,15.56,-6.30,15.53,-6.81,15.47,-6.71,15.50,-4.90,14.71,-4.00,15.20,-3.72,16.65,-4.86,18.28,-5.44,19.15,-6.25,19.73,-6.40,20.21,-7.68,17.61
2009-05-29 16:00,-19.92,38.41,-13.45,42.52,-9.20,41.65,-1.12,37.88,2.96,32.87,3.26,31.91,1.10,34.80,-1.62,36.15,-4.40,34.97,-6.40,34.35,-8.00,36.78,-6.90,38.28,-6.34,37.83,-5.96,37.63,-5.12,38.31,-4.15,39.56,-2.98,41.18,-3.61,42.87,-3.93,44.23,-4.03,44.20,-5.11,43.65,-5.26,42.46,-3.43,39.26
2009-05-29 17:00,-24.37,35.88,-23.52,37.19,-19.59,40.72,-14.42,44.95,-10.25,48.03,-5.80,50.56,-4.67,49.97,-4.95,48.84,-3.83,46.25,-3.70,44.83,-6.48,45.01,-11.46,42.52,-14.80,39.80,-13.70,41.29,-11.50,43.65,-9.82,45.65,-9.35,45.16,-8.69,43.69,-8.77,41.26,-9.25,39.12,-9.10,36.96,-8.75,35.50,-8.93,34.40
2009-05-29 18:00,-17.93,36.73,-17.92,36.00,-18.46,35.73,-19.41,35.43,-18.73,34.91,-17.97,33.47,-15.64,32.73,-13.11,32.68,-12.10,31.11,-12.87,27.20,-14.46,23.88,-14.30,23.72,-12.09,23.68,-10.69,23.90,-8.54,22.37,-7.69,20.65,-8.80,20.20,-7.96,19.51,-6.93,17.22,-5.78,14.85,-5.12,13.07,-5.07,10.57,-4.76,8.89
2009-05-29 19:00,2.41,10.07,-1.58,16.16,-8.20,20.59,-10.39,22.95,-12.79,23.56,-14.79,22.94,-16.59,21.33,-17.63,20.28,-17.30,19.23,-12.82,18.63,-10.20,18.29,-9.10,18.11,-6.96,17.31,-5.04,15.19,-3.05,12.14,-0.46,8.55,1.56,5.09,2.60,2.07,3.72,-0.52,4.16,-2.26,4.37,-2.93,4.12,-4.16,4.24,-4.86
2009-05-29 20:00,3.72,2.52,4.22,5.29,1.52,6.23,-0.59,8.30,-3.95,9.98,-5.26,10.83,-6.60,13.45,-6.08,15.81,-5.58,15.23,-4.77,14.64,-1.96,12.69,-0.74,10.77,-0.20,10.73,-1.26,8.09,-1.87,4.65,-1.74,0.19,-0.43,-2.65,0.41,-1.65,3.11,0.44,5.55,-0.68,5.66,-3.37,6.15,-5.63,6.47,-6.99
2009-05-29 21:00,-6.86,1.84,-5.88,6.44,-5.89,7.49,-4.00,7.45,-1.77,6.36,-1.76,3.96,0.03,3.26,-0.48,1.53,-0.37,-1.16,-1.65,-5.12,-2.87,-10.63,-1.88,-11.79,0.44,-9.81,1.11,-12.64,2.29,-17.09,2.42,-23.23,2.35,-28.39,2.38,-30.16,0.90,-31.14,-0.05,-32.80,-0.80,-33.76,-1.80,-34.91,-3.19,-34.82
2009-05-29 22:00,-5.78,-15.73,-3.82,-12.29,-2.68,-12.25,-2.32,-11.72,-0.47,-12.61,1.77,-12.75,1.96,-12.69,2.25,-14.28,4.20,-16.50,3.34,-21.16,4.12,-25.01,5.38,-30.06,6.97,-33.13,8.44,-36.86,9.31,-37.95,8.33,-37.84,7.56,-38.39,5.08,-39.16,1.80,-40.08,0.04,-39.47,-0.11,-39.00,0.48,-38.19,0.05,-37.17
2009-05-29 23:00,-7.41,-18.23,-6.50,-15.12,-4.16,-12.19,-2.66,-9.63,-2.65,-9.31,-1.39,-12.69,-0.43,-21.50,0.30,-28.19,-1.12,-32.71,-1.03,-32.68,2.72,-33.61,6.55,-36.82,8.42,-38.12,8.04,-37.92,7.05,-36.77,5.13,-36.63,2.57,-36.17,-0.50,-36.40,-3.09,-36.47,-4.23,-36.51,-4.27,-35.06,-2.40,-31.64,-2.54,-27.81
2009-05-30 00:00,-4.03,-13.30,0.86,-7.48,4.16,-6.98,4.77,-6.89,7.02,-8.08,10.08,-9.85,5.76,-17.16,1.28,-21.60,-3.65,-21.56,-6.32,-25.43,-4.15,-27.69,-0.22,-28.56,2.14,-31.07,3.44,-32.23,2.89,-32.82,1.90,-33.34,1.53,-33.15,0.94,-32.60,-0.13,-31.88,-0.51,-30.32,0.38,-30.15,3.57,-28.95,2.03,-27.02
2009-05-30 01:00,2.18,-19.43,2.83,-13.78,3.45,-1.65,6.61,6.35,8.10,3.26,6.47,-0.60,4.58,-6.64,-1.06,-11.75,-8.90,-16.49,-11.51,-18.88,-9.21,-20.88,-5.40,-25.04,-2.87,-26.76,-0.86,-27.50,0.34,-27.65,1.39,-27.01,2.04,-26.39,2.30,-25.89,3.03,-25.87,3.13,-25.84,3.98,-25.89,4.50,-25.20,4.43,-17.26
2009-05-30 02:00,-14.36,-1.64,-0.31,11.74,6.41,12.05,10.27,10.74,7.09,9.85,3.49,8.63,-0.31,8.07,-4.23,6.85,-10.20,2.48,-11.01,0.03,-9.06,0.84,-8.32,1.49,-7.50,1.22,-6.43,-0.54,-5.59,-1.22,-3.89,-1.63,-4.65,-1.55,-4.64,-1.24,-3.41,-1.48,-3.24,-2.06,-2.88,-3.20,-1.76,-4.11,0.44,-3.11
2009-05-30 03:00,-6.13,11.29,-1.43,25.11,-0.77,30.03,-1.38,30.68,-1.69,24.93,-0.56,17.94,-0.16,11.26,1.92,9.29,2.43,11.02,3.33,11.83,0.73,11.12,-3.48,9.49,-5.03,8.07,-4.35,6.92,-1.82,6.87,-0.24,7.15,-1.73,6.90,-0.97,6.82,-1.29,6.83,-1.47,7.40,-2.16,7.29,-2.09,8.04,-0.88,6.85
2009-05-30 04:00,-12.93,24.04,-11.46,23.35,-5.03,23.88,-3.15,29.29,-4.11,30.67,-4.03,31.42,-5.52,31.17,-8.49,31.29,-8.41,30.37,-6.62,29.99,-7.30,30.82,-6.36,31.85,-5.98,31.65,-6.90,31.58,-8.84,31.08,-8.47,30.56,-7.33,29.24,-5.68,27.66,-4.98,27.77,-4.83,27.61,-5.38,27.02,-4.65,27.36,-4.53,26.66
2009-05-30 05:00,-13.14,34.45,-11.74,33.00,-9.27,30.10,-5.01,27.87,-1.60,27.68,-2.79,28.46,-5.46,29.30,-6.04,32.16,-6.50,36.00,-7.16,40.82,-7.64,42.34,-9.79,42.20,-9.97,42.77,-8.42,42.83,-6.83,43.12,-7.17,40.18,-7.26,39.11,-6.88,39.23,-7.03,37.71,-7.15,36.74,-6.21,36.40,-7.21,35.25,-7.39,34.15
2009-05-30 06:00,-28.47,41.30,-28.70,40.71,-28.59,38.65,-27.55,36.67,-26.97,35.80,-24.31,34.32,-17.90,33.60,-12.62,31.78,-11.26,33.47,-11.45,35.08,-10.02,35.21,-9.46,33.40,-8.11,31.41,-7.74,30.90,-5.70,28.39,-4.21,25.61,-4.58,24.13,-5.46,22.91,-6.80,22.18,-7.36,21.27,-6.90,20.47,-5.07,20.31,-5.15,19.55
2009-05-30 07:00,-4.28,18.46,-12.74,24.42,-14.85,26.48,-14.45,25.87,-15.10,26.61,-13.69,29.15,-14.14,30.26,-14.53,31.51,-14.73,32.17,-13.45,28.38,-11.90,26.77,-11.34,24.64,-11.06,23.06,-9.84,20.50,-7.46,19.57,-5.18,17.97,-3.34,14.77,-3.18,11.89,-2.03,10.89,-0.85,9.79,0.31,7.74,0.39,5.46,0.50,4.45
2009-05-30 08:00,-7.04,0.74,-9.92,5.60,-13.26,10.95,-15.11,19.59,-14.40,23.69,-11.57,24.36,-8.81,22.92,-7.24,20.89,-5.69,19.28,-5.17,16.61,-4.60,13.75,-5.30,10.29,-6.26,9.68,-7.80,8.57,-8.16,6.36,-8.27,5.70,-8.23,4.56,-6.15,3.95,-3.57,1.72,-1.46,-2.03,0.65,-4.09,1.82,-6.87,2.79,-7.61
2009-05-30 09:00,-3.26,6.11,-1.40,12.55,-2.50,16.09,-4.73,18.22,-3.83,17.66,-1.06,13.49,1.77,11.13,4.57,10.54,2.85,8.01,3.22,6.14,4.42,0.96,3.28,-5.47,1.30,-10.91,0.56,-11.87,2.54,-10.84,4.09,-13.81,4.61,-19.51,4.62,-23.91,3.59,-24.96,3.31,-24.74,2.45,-25.00,1.86,-24.45,1.76,-22.81
2009-05-30 10:00,-9.80,-3.16,-10.20,-2.23,-8.34,-2.49,-3.60,-1.54,-1.00,-4.19,1.36,-7.74,3.09,-8.57,0.75,-11.50,0.55,-13.55,0.62,-16.78,-0.86,-21.11,-0.47,-27.07,0.17,-31.47,2.24,-35.44,3.11,-37.57,3.72,-39.17,5.53,-40.28,3.75,-40.62,1.79,-40.71,-0.79,-41.51,-2.18,-43.10,-1.46,-41.72,1.21,-40.89
2009-05-30 11:00,-3.72,-13.94,-0.16,-12.62,3.44,-11.71,3.22,-13.03,2.13,-16.93,2.39,-19.78,2.36,-23.04,1.27,-25.27,-0.12,-30.20,-0.96,-33.92,0.38,-35.18,3.57,-38.37,5.41,-41.26,6.61,-43.08,7.37,-43.16,5.70,-42.84,2.72,-43.35,0.54,-44.77,-0.98,-44.61,-1.81,-43.61,-1.96,-43.13,-0.30,-42.41,0.45,-41.13
2009-05-30 12:00,0.54,-17.53,6.86,-14.31,10.18,-13.17,9.39,-16.35,7.91,-20.68,6.85,-26.04,4.65,-30.08,1.37,-31.31,-0.38,-33.74,0.91,-35.54,4.02,-36.77,5.69,-40.12,5.82,-42.91,5.70,-42.84,5.80,-42.50,3.81,-42.49,3.03,-42.00,1.63,-40.87,1.11,-39.87,1.22,-38.90,1.13,-38.61,2.41,-36.64,2.97,-36.78
2009-05-30 13:00,-0.41,-17.51,6.75,-8.89,7.58,-3.50,7.80,-5.53,5.35,-11.11,-1.47,-16.80,-6.58,-20.90,-7.82,-22.65,-4.78,-22.33,-1.91,-24.79,-3.09,-26.73,-3.34,-28.27,-2.87,-28.12,-1.75,-29.35,0.23,-29.99,1.40,-29.73,2.88,-30.42,3.26,-30.30,4.67,-29.44,5.22,-28.54,6.83,-26.99,7.83,-24.79,7.89,-22.99
2009-05-30 14:00,3.46,-8.77,11.99,-1.50,13.75,2.61,9.64,1.33,4.32,-2.43,-0.57,-6.57,-5.01,-10.15,-3.70,-11.31,-0.91,-14.21,1.12,-18.71,0.52,-21.52,-0.04,-21.06,-0.01,-19.80,0.06,-17.68,-0.03,-15.72,0.15,-14.93,1.49,-14.20,2.44,-13.90,2.87,-14.61,2.89,-15.33,3.59,-16.58,3.66,-18.13,4.52,-17.55
2009-05-30 15:00,-6.43,5.85,4.10,7.35,8.83,11.34,9.38,11.93,6.60,10.75,2.81,7.79,-0.59,5.58,-1.26,5.05,0.31,4.39,0.61,5.11,0.85,6.02,1.66,5.76,3.58,3.63,5.64,2.07,6.30,3.64,5.37,5.97,4.01,6.28,2.39,5.77,1.13,5.80,0.58,5.21,2.24,4.57,2.57,3.52,3.00,2.82
2009-05-30 16:00,3.72,25.04,3.09,28.40,1.70,29.86,0.26,30.45,-1.23,30.51,-1.54,29.48,-1.21,26.75,-2.62,22.86,-3.09,21.03,-2.71,19.79,-2.57,20.36,-3.39,20.31,-3.64,20.44,-2.86,19.95,-1.58,20.87,2.08,20.23,2.52,20.48,1.96,20.93,1.06,21.49,-0.61,22.12,-1.74,22.40,-3.01,23.47,-2.82,23.84
2009-05-30 17:00,-9.47,28.05,-8.03,27.45,-9.06,31.43,-12.99,37.01,-15.06,39.93,-16.82,40.22,-16.99,38.07,-13.94,35.35,-11.25,34.10,-7.16,33.07,-3.98,33.64,-2.01,35.72,-3.26,36.69,-3.20,36.50,-1.61,37.10,-0.82,38.29,-1.12,39.24,-2.02,40.11,-2.99,40.86,-2.92,40.99,-2.82,41.02,-2.85,39.75,-2.94,38.36
2009-05-30 18:00,0.27,24.70,-12.51,28.05,-20.82,28.50,-21.74,25.07,-17.41,26.31,-11.54,32.33,-9.74,36.98,-11.36,41.18,-12.47,44.08,-12.88,46.05,-12.36,46.42,-11.61,46.03,-9.00,44.02,-4.84,39.76,-2.61,39.30,-1.51,38.81,-1.30,38.14,-1.50,37.45,-1.12,36.21,-1.45,35.26,-0.70,33.51,-1.34,31.53,-1.52,28.43
2009-05-30 19:00,-5.93,19.73,-12.11,27.44,-16.26,30.34,-16.64,28.54,-13.86,30.04,-11.24,33.05,-8.07,38.34,-5.99,39.09,-4.12,37.78,-3.45,34.96,-2.74,30.99,-2.66,27.03,-1.65,26.82,1.55,28.66,2.16,29.06,2.47,28.73,0.78,26.43,0.15,23.40,-1.06,21.56,-1.17,20.90,-3.27,19.93,-3.57,19.21,-3.70,18.96
2009-05-30 20:00,-0.44,5.10,-8.69,13.11,-15.55,21.34,-15.67,25.08,-12.60,26.34,-11.19,27.52,-8.20,25.31,-4.93,24.23,-2.53,23.93,-1.67,22.84,-2.58,20.04,-6.87,18.70,-8.72,18.23,-8.65,15.32,-9.30,14.07,-10.20,14.94,-11.37,15.31,-11.53,13.48,-9.47,11.92,-5.26,9.15,-1.81,7.50,0.34,7.65,0.76,6.31
2009-05-30 21:00,-2.79,4.26,-2.92,12.39,-0.25,15.95,-6.03,18.34,-7.84,17.77,-6.78,15.38,-6.54,12.94,-7.19,13.68,-8.91,14.82,-8.06,13.10,-6.76,9.94,-10.12,7.95,-11.78,4.19,-9.79,2.50,-8.30,0.77,-7.64,-1.02,-7.30,-1.12,-5.17,-2.55,-2.64,-5.32,-1.45,-7.78,-1.14,-11.14,-0.41,-14.16,-1.44,-15.22
2009-05-30 22:00,0.01,1.99,1.94,3.54,-0.17,5.92,0.01,6.71,1.22,5.83,1.07,7.66,0.56,9.29,0.73,6.72,1.77,3.38,2.46,-0.49,0.20,-5.70,1.35,-8.69,-0.30,-8.79,-1.24,-10.13,0.64,-13.83,3.73,-17.69,4.67,-22.74,3.35,-25.88,3.79,-25.95,3.31,-26.10,2.62,-25.58,2.45,-25.00,2.86,-24.66